Location: ??????????
(54.4061°N, 22.6114°E)
Time: 09:54:02
(UTC+00:00)

Cosmos 1459 Rocket - Pass Details

Date: 23 October 2019
Orbit: 938 x 999 km, 83.0° (Epoch: 14 November)

Event Time Altitude Azimuth Distance (km) Brightness Sun altitude
Rises 17:35:34 0° 347° (NNW) 3,664 7.3 -21.2°
Reaches altitude 10° 17:38:05 10° 345° (NNW) 2,722 6.6 -21.5°
Maximum altitude 17:44:15 66° 265° (W) 1,064 4.3 -22.4°
Drops below altitude 10° 17:50:28 10° 185° (S) 2,744 6.3 -23.3°
Sets 17:53:01 0° 182° (S) 3,695 6.9 -23.6°
